^^
Saratoga-Weather Station Historical Data
 
Daily Summary for June 25, 2018 Units:  English    Metric   Both
Daily Weekly Monthly Yearly Custom
  Current: High: Low: Average:
Temperature: 60.1 °F 63.9 °F 60.1 °F 62.6 °F
Dew Point: 54.6 °F 57.2 °F 54.6 °F 56.1 °F
Humidity: 82% 82% 77% 79%
Wind Speed: 0.0mph 2.4mph 0.0mph 0.2mph
Wind Gust: 0.0mph 5.8mph - -
WindCalm - - ESE
Pressure: 29.91 in 29.93 in 29.91 in -
Precipitation: 0.00 in      
Historical Graphs
 
 
Tabular Data for June 25, 2018
Time Temperature Dew Point Pressure Wind Wind Speed Wind Gust Humidity Rainfall Rate (Hourly) solar
00:04 63.9 °F 56.9 °F 29.93 in Calm     78% 0.00 in 0.00 W/m2
00:09 63.7 °F 56.7 °F 29.93 in Calm     78% 0.00 in 0.00 W/m2
00:14 63.7 °F 56.4 °F 29.93 in Calm     77% 0.00 in 0.00 W/m2
00:19 63.5 °F 56.5 °F 29.93 in Calm     78% 0.00 in 0.00 W/m2
00:24 63.5 °F 56.5 °F 29.93 in Calm     78% 0.00 in 0.00 W/m2
00:29 63.5 °F 56.5 °F 29.93 in Calm     78% 0.00 in 0.00 W/m2
00:34 63.5 °F 56.5 °F 29.93 in Calm     78% 0.00 in 0.00 W/m2
00:39 63.5 °F 56.5 °F 29.93 in Calm     78% 0.00 in 0.00 W/m2
00:44 63.4 °F 56.4 °F 29.93 in Calm     78% 0.00 in 0.00 W/m2
00:49 63.4 °F 56.8 °F 29.93 in Calm     79% 0.00 in 0.00 W/m2
00:54 63.4 °F 56.8 °F 29.93 in Calm     79% 0.00 in 0.00 W/m2
00:59 63.4 °F 56.8 °F 29.93 in Calm     79% 0.00 in 0.00 W/m2
01:04 63.4 °F 56.8 °F 29.93 in Calm     79% 0.00 in 0.00 W/m2
01:09 63.4 °F 56.8 °F 29.93 in East 2.4 mph 3.5 mph 79% 0.00 in 0.00 W/m2
01:14 63.5 °F 56.9 °F 29.93 in East 0.5 mph 3.5 mph 79% 0.00 in 0.00 W/m2
01:19 63.5 °F 57.2 °F 29.93 in Calm   3.5 mph 80% 0.00 in 0.00 W/m2
01:24 63.5 °F 56.9 °F 29.93 in Calm     79% 0.00 in 0.00 W/m2
01:29 63.5 °F 56.9 °F 29.93 in Calm     79% 0.00 in 0.00 W/m2
01:34 63.5 °F 56.9 °F 29.92 in Calm     79% 0.00 in 0.00 W/m2
01:39 63.5 °F 56.9 °F 29.92 in Calm     79% 0.00 in 0.00 W/m2
01:44 63.5 °F 56.9 °F 29.92 in Calm     79% 0.00 in 0.00 W/m2
01:49 63.4 °F 56.8 °F 29.92 in Calm     79% 0.00 in 0.00 W/m2
01:54 63.4 °F 56.4 °F 29.92 in Calm     78% 0.00 in 0.00 W/m2
01:59 63.4 °F 56.4 °F 29.92 in Calm     78% 0.00 in 0.00 W/m2
02:04 63.4 °F 56.4 °F 29.92 in Calm     78% 0.00 in 0.00 W/m2
02:09 63.4 °F 56.4 °F 29.92 in Calm     78% 0.00 in 0.00 W/m2
02:14 63.2 °F 56.2 °F 29.92 in Calm     78% 0.00 in 0.00 W/m2
02:19 63.2 °F 56.2 °F 29.92 in Calm     78% 0.00 in 0.00 W/m2
02:24 63.1 °F 56.1 °F 29.92 in Calm     78% 0.00 in 0.00 W/m2
02:29 63.1 °F 56.1 °F 29.92 in Calm     78% 0.00 in 0.00 W/m2
02:34 62.9 °F 56.3 °F 29.92 in Calm     79% 0.00 in 0.00 W/m2
02:39 62.9 °F 55.9 °F 29.92 in Calm     78% 0.00 in 0.00 W/m2
02:44 62.7 °F 56.1 °F 29.91 in East 2.0 mph 3.5 mph 79% 0.00 in 0.00 W/m2
02:49 62.6 °F 56.0 °F 29.91 in Calm     79% 0.00 in 0.00 W/m2
02:54 62.4 °F 55.8 °F 29.91 in ESE 1.6 mph 5.8 mph 79% 0.00 in 0.00 W/m2
02:59 62.3 °F 55.7 °F 29.91 in ESE 0.8 mph 2.3 mph 79% 0.00 in 0.00 W/m2
03:04 62.1 °F 55.5 °F 29.91 in ESE 1.8 mph 4.6 mph 79% 0.00 in 0.00 W/m2
03:09 62.0 °F 55.4 °F 29.91 in Calm     79% 0.00 in 0.00 W/m2
03:14 61.8 °F 55.6 °F 29.91 in ESE 1.9 mph 4.6 mph 80% 0.00 in 0.00 W/m2
03:19 61.6 °F 55.4 °F 29.91 in ESE 0.3 mph 1.2 mph 80% 0.00 in 0.00 W/m2
03:24 61.5 °F 55.6 °F 29.91 in Calm     81% 0.00 in 0.00 W/m2
03:29 61.3 °F 55.4 °F 29.91 in ESE 1.6 mph 3.5 mph 81% 0.00 in 0.00 W/m2
03:34 61.3 °F 55.4 °F 29.91 in Calm     81% 0.00 in 0.00 W/m2
03:39 61.2 °F 55.3 °F 29.91 in Calm     81% 0.00 in 0.00 W/m2
03:44 61.0 °F 55.1 °F 29.91 in Calm     81% 0.00 in 0.00 W/m2
03:49 60.9 °F 55.0 °F 29.91 in Calm     81% 0.00 in 0.00 W/m2
03:54 60.9 °F 55.0 °F 29.91 in Calm   2.3 mph 81% 0.00 in 0.00 W/m2
03:59 60.7 °F 54.8 °F 29.91 in Calm     81% 0.00 in 0.00 W/m2
04:04 60.5 °F 55.0 °F 29.91 in Calm     82% 0.00 in 0.00 W/m2
04:09 60.5 °F 55.0 °F 29.91 in Calm     82% 0.00 in 0.00 W/m2
04:14 60.4 °F 54.9 °F 29.91 in Calm     82% 0.00 in 0.00 W/m2
04:19 60.2 °F 54.7 °F 29.91 in Calm     82% 0.00 in 0.00 W/m2
04:24 60.1 °F 54.6 °F 29.91 in Calm     82% 0.00 in 0.00 W/m2
Juneau County Weather
Compliments of Weather Underground - 1.75 mb